Weather History for Broken Bow, NE

Change the Weather History Date:

Sunday, March 10, 2013

  Actual Average Record
Temperature  
Mean Temperature 22 °F 36 °F  
Max Temperature 29 °F 49 °F 77 °F (1967)
Min Temperature 15 °F 22 °F -9 °F (1932)
Degree Days  
Heating Degree Days 43 29  
Month to date heating degree days 341 311  
Cooling Degree Days 0 0  
Month to date cooling degree days 0 0  
Year to date cooling degree days 0 0  
Moisture  
Dew Point 16 °F    
Average Humidity 80    
Maximum Humidity 92    
Minimum Humidity 68    
Precipitation  
Precipitation 0.03 in 0.03 in 0.20 in (1904)
Sea Level Pressure  
Sea Level Pressure 30.03 in    
Wind  
Wind Speed 24 mph (North)    
Max Wind Speed 38 mph    
Max Gust Speed 48 mph    
Visibility 4 miles    
Events Fog , Snow    
T = Trace of Precipitation, MM = Missing Value Source: NWS Daily Summary

Daily Weather History Graph

Daily Weather History Graph

Search for Another Location

Airport:

Trip Planner

Search our weather history database for the weather conditions in past years. The results will help you decide how hot, cold, wet, or windy it might be!

Date:

Astronomy

Mar. 10, 2013 Rise Set
Actual Time 7:58 AM CDT 7:39 PM CDT
Civil Twilight 7:30 AM CDT 8:07 PM CDT
Nautical Twilight 6:58 AM CDT 8:39 PM CDT
Astronomical Twilight 6:26 AM CDT 9:12 PM CDT
Moon 6:59 AM CDT (3/10) 6:49 PM CDT (3/10)
Length of Visible Light 12h 36m
Length of Day
11h 41m
Waning Crescent, 2% of the Moon is Illuminated
Mar 10
Waning Crescent
Mar 11
New
Mar 19
First Quarter
Mar 27
Full
Apr 2
Last Quarter

Hourly Weather History & Observations

Time (CDT) Temp. Windchill Dew Point Humidity Pressure Visibility Wind Dir Wind Speed Gust Speed Precip Events Conditions
12:03 AM 28.4 °F 13.3 °F 26.6 °F 93% 29.86 in 1.8 mi North 27.6 mph 35.7 mph 0.00 in Snow Light Snow
12:22 AM 28.4 °F 13.0 °F 26.6 °F 93% 29.86 in 1.0 mi North 28.8 mph 34.5 mph 0.00 in Snow Light Snow
12:29 AM 28.4 °F 13.0 °F 26.6 °F 93% 29.86 in 0.8 mi North 28.8 mph 36.8 mph 0.00 in Snow Light Snow
12:40 AM 28.4 °F 14.1 °F 26.6 °F 93% 29.86 in 0.8 mi North 24.2 mph 40.3 mph 0.00 in Snow Light Snow
12:53 AM 28.9 °F 13.7 °F 27.0 °F 92% 29.93 in 0.8 mi North 28.8 mph 35.7 mph 0.00 in Snow Light Snow
1:53 AM 27.0 °F 10.3 °F 25.0 °F 92% 29.96 in 0.5 mi North 32.2 mph 47.2 mph 0.02 in Fog , Snow Snow
3:07 AM 26.6 °F 9.3 °F 24.8 °F 93% 29.90 in 0.5 mi North 34.5 mph 44.9 mph 0.00 in Fog , Snow Snow
3:53 AM 25.0 °F 8.1 °F 19.9 °F 81% 29.99 in 0.8 mi North 29.9 mph 44.9 mph 0.01 in Snow Light Snow
4:17 AM 24.8 °F 7.6 °F 17.6 °F 74% 29.92 in 1.0 mi North 31.1 mph 42.6 mph 0.00 in Snow Light Snow
4:24 AM 23.0 °F 5.4 °F 17.6 °F 80% 29.93 in 1.2 mi North 29.9 mph 40.3 mph 0.00 in Snow Light Snow
4:39 AM 24.8 °F 9.0 °F 17.6 °F 74% 29.93 in 3.0 mi North 25.3 mph 39.1 mph 0.00 in Snow Light Snow
4:53 AM 24.1 °F 7.4 °F 18.0 °F 77% 30.02 in 3.0 mi North 27.6 mph 36.8 mph 0.00 in Snow Blowing Snow
4:59 AM 23.0 °F 5.1 °F 17.6 °F 80% 29.94 in 1.8 mi North 31.1 mph 39.1 mph 0.00 in Snow Light Snow
5:10 AM 23.0 °F 5.1 °F 17.6 °F 80% 29.94 in 1.0 mi North 31.1 mph 40.3 mph 0.00 in Snow Light Snow
5:17 AM 23.0 °F 5.7 °F 17.6 °F 80% 29.95 in 2.0 mi North 28.8 mph 39.1 mph 0.00 in Snow Light Snow
5:29 AM 23.0 °F 7.2 °F 17.6 °F 80% 29.95 in 6.0 mi North 23.0 mph 33.4 mph 0.00 in Snow Blowing Snow
5:53 AM 21.9 °F 3.9 °F 17.1 °F 82% 30.04 in 5.0 mi North 29.9 mph 36.8 mph 0.00 in Snow Blowing Snow
6:40 AM 19.4 °F 0.5 °F 15.8 °F 86% 29.96 in 2.0 mi NNW 29.9 mph 40.3 mph 0.00 in Snow Blowing Snow
6:53 AM 19.4 °F 0.2 °F 14.0 °F 80% 29.97 in 2.5 mi NNW 31.1 mph 40.3 mph N/A Snow Light Snow
7:30 AM 19.4 °F 2.5 °F 14.0 °F 80% 29.99 in 5.0 mi North 23.0 mph 32.2 mph 0.00 in Snow Light Snow
7:53 AM 19.0 °F 0.6 °F 14.0 °F 81% 30.10 in 7.0 mi North 27.6 mph 38.0 mph 0.00 in   Overcast
8:14 AM 17.6 °F -1.6 °F 12.2 °F 79% 30.00 in 6.0 mi North 28.8 mph 38.0 mph N/A Snow Blowing Snow
8:53 AM 18.0 °F -0.2 °F 12.9 °F 81% 30.13 in 4.0 mi North 25.3 mph 33.4 mph 0.00 in Snow Light Snow
9:10 AM 17.6 °F -0.6 °F 12.2 °F 79% 30.03 in 2.5 mi North 25.3 mph 39.1 mph 0.00 in Snow Light Snow
9:18 AM 17.6 °F -1.3 °F 12.2 °F 79% 30.03 in 1.2 mi North 27.6 mph 38.0 mph 0.00 in Snow Light Snow
9:37 AM 17.6 °F -0.3 °F 12.2 °F 79% 30.04 in 0.8 mi North 24.2 mph 33.4 mph 0.00 in Snow Light Snow
9:53 AM 17.1 °F -3.2 °F 12.9 °F 84% 30.14 in 0.8 mi North 32.2 mph 38.0 mph 0.00 in Snow Light Snow
10:03 AM 17.6 °F -1.6 °F 12.2 °F 79% 30.04 in 1.0 mi NNW 28.8 mph 38.0 mph 0.00 in Snow Light Snow
10:12 AM 17.6 °F -2.8 °F 12.2 °F 79% 30.04 in 0.8 mi NNW 33.4 mph 41.4 mph 0.00 in   Haze
10:25 AM 17.6 °F -1.3 °F 12.2 °F 79% 30.05 in 1.2 mi NNW 27.6 mph 40.3 mph 0.00 in   Haze
10:41 AM 17.6 °F -1.6 °F 12.2 °F 79% 30.05 in 0.8 mi North 28.8 mph 40.3 mph 0.00 in   Haze
10:53 AM 17.1 °F -2.0 °F 12.9 °F 84% 30.16 in 1.0 mi North 27.6 mph 35.7 mph 0.00 in   Overcast
11:00 AM 17.6 °F 0.1 °F 12.2 °F 79% 30.06 in 1.8 mi North 23.0 mph 35.7 mph N/A   Haze
11:08 AM 17.6 °F -1.6 °F 12.2 °F 79% 30.06 in 2.0 mi North 28.8 mph 41.4 mph 0.00 in Snow Light Snow
11:32 AM 17.6 °F -1.9 °F 10.4 °F 73% 30.06 in 4.0 mi NNW 29.9 mph 38.0 mph 0.00 in Snow Light Snow
11:48 AM 17.6 °F -1.0 °F 12.2 °F 79% 30.06 in 2.5 mi North 26.5 mph 33.4 mph 0.00 in Snow Light Snow
11:53 AM 17.1 °F -2.4 °F 10.9 °F 77% 30.16 in 3.0 mi North 28.8 mph 34.5 mph 0.00 in Snow Light Snow
12:06 PM 17.6 °F -2.5 °F 10.4 °F 73% 30.06 in 8.0 mi North 32.2 mph 40.3 mph 0.00 in Snow Light Snow
12:23 PM 19.4 °F 0.5 °F 12.2 °F 74% 30.06 in 5.0 mi North 29.9 mph 36.8 mph 0.00 in Snow Light Snow
12:53 PM 19.9 °F 1.8 °F 12.0 °F 71% 30.15 in 6.0 mi North 27.6 mph 38.0 mph 0.00 in Snow Light Snow
1:53 PM 21.9 °F 4.5 °F 15.1 °F 75% 30.14 in 10.0 mi North 27.6 mph 38.0 mph 0.00 in   Overcast
2:53 PM 21.9 °F 4.8 °F 15.1 °F 75% 30.13 in 9.0 mi North 26.5 mph 39.1 mph 0.00 in   Overcast
3:53 PM 23.0 °F 6.6 °F 15.1 °F 72% 30.14 in 10.0 mi North 25.3 mph 34.5 mph 0.00 in   Overcast
4:53 PM 24.1 °F 9.0 °F 16.0 °F 71% 30.14 in 10.0 mi North 21.9 mph 29.9 mph 0.00 in   Overcast
5:53 PM 24.1 °F 8.0 °F 15.1 °F 69% 30.14 in 10.0 mi North 25.3 mph 31.1 mph N/A   Overcast
6:53 PM 23.0 °F 7.2 °F 14.0 °F 68% 30.14 in 10.0 mi NNW 23.0 mph 32.2 mph N/A   Mostly Cloudy
7:30 PM 21.2 °F 6.4 °F 14.0 °F 74% 30.03 in 10.0 mi North 18.4 mph - N/A   Scattered Clouds
7:53 PM 21.0 °F 7.1 °F 14.0 °F 74% 30.14 in 10.0 mi North 16.1 mph - N/A   Clear
8:53 PM 19.4 °F 6.0 °F 14.0 °F 80% 30.03 in 10.0 mi NNW 13.8 mph - N/A   Clear
9:53 PM 19.0 °F 6.1 °F 14.0 °F 81% 30.14 in 10.0 mi North 12.7 mph - N/A   Clear
10:53 PM 18.0 °F 4.8 °F 12.9 °F 81% 30.13 in 10.0 mi NNW 12.7 mph - N/A   Clear
11:53 PM 16.0 °F 6.3 °F 12.0 °F 84% 30.12 in 10.0 mi NNW 6.9 mph - N/A   Clear
12:53 AM 15.1 °F 3.3 °F 10.9 °F 84% 30.12 in 10.0 mi North 9.2 mph - N/A   Clear